Location: Unspecified
(38.0989°N, 0.6729°W)
Time: 03:12:55
(UTC+02:00)

Envisat - Visible Passes

Search period start: 25 May 2017 00:00
Search period end: 04 June 2017 00:00
Orbit: 764 x 766 km, 98.2° (Epoch: 24 May)

Date Brightness Start Highest point End Pass type
(mag) Time Alt. Az. Time Alt. Az. Time Alt. Az.
25 May 3.2 22:15:32 10° S 22:20:34 72° WSW 22:25:40 10° NNW visible
26 May 3.3 21:39:05 10° SE 21:43:57 49° ENE 21:48:51 10° N visible
26 May 5.4 23:19:55 10° SW 23:23:13 17° W 23:26:32 10° NW visible
27 May 4.2 22:41:32 10° SSW 22:46:16 39° W 22:51:02 10° NNW visible
28 May 3.0 22:04:25 10° SSE 22:09:30 89° E 22:14:37 10° NNW visible
29 May 5.1 23:08:09 10° SW 23:12:03 22° W 23:15:58 10° NW visible
30 May 3.8 22:30:14 10° S 22:35:09 51° W 22:40:06 10° NNW visible
31 May 3.0 21:53:25 10° SSE 21:58:27 70° ENE 22:03:31 10° N visible
31 May 5.6 23:36:03 10° WSW 23:37:56 12° W 23:39:48 10° WNW visible
01 Jun 4.8 22:56:34 10° SSW 23:00:54 28° W 23:05:15 10° NW visible
02 Jun 3.4 22:19:02 10° S 22:24:03 65° W 22:29:07 10° NNW visible
03 Jun 5.5 23:23:45 10° SW 23:26:44 16° W 23:29:43 10° NW visible
